Location: Broletto
(44.6000°N, 10.5833°E)
Time: 02:33:26
(UTC+00:00)

Resurs 01 Rocket - Pass Details

Date: 18 April 2021
Orbit: 634 x 644 km, 97.9° (Epoch: 08 May)

Event Time Altitude Azimuth Distance (km) Brightness Sun altitude
Exits shadow 19:12:45 16° 128° (SE) 1,654 3.1 -11.7°
Maximum altitude 19:15:45 36° 69° (ENE) 1,025 2.4 -12.2°
Drops below altitude 10° 19:19:49 10° 3° (N) 2,051 4.6 -12.8°
Sets 19:22:10 0° 355° (N) 2,966 5.6 -13.2°
